This is the latest recevied weather packets stored in our database for station/object N5XJB. If no packets are shown the sender has not sent any weather packets the latest 10 day(s).
| Time | Temp. | Humidity | Pressure | Rain* | Wind** | Luminosity | Snow |
|---|---|---|---|---|---|---|---|
| 1777937278 | 26.11° C | 66% | 1011.4 hPa | 0 mm | - | 110 W/m² | - |
| 1777936975 | 26.11° C | 65% | 1011.7 hPa | 0 mm | - | 122 W/m² | - |
| 1777936672 | 26.11° C | 65% | 1011.7 hPa | 0 mm | - | 126 W/m² | - |
| 1777936369 | 26.11° C | 66% | 1011.7 hPa | 0 mm | - | 116 W/m² | - |
| 1777936064 | 26.11° C | 65% | 1011.7 hPa | 0 mm | - | 136 W/m² | - |
| 1777935763 | 26.67° C | 64% | 1011.7 hPa | 0 mm | - | 162 W/m² | - |
| 1777935461 | 26.67° C | 64% | 1012.1 hPa | 0 mm | - | 174 W/m² | - |
| 1777935157 | 26.67° C | 64% | 1011.7 hPa | 0 mm | - | 153 W/m² | - |
| 1777934855 | 26.67° C | 64% | 1012.1 hPa | 0 mm | - | 157 W/m² | - |
| 1777934552 | 26.67° C | 64% | 1012.1 hPa | 0 mm | - | 304 W/m² | - |
| 1777934248 | 26.67° C | 64% | 1012.1 hPa | 0 mm | - | 164 W/m² | - |
| 1777933944 | 26.67° C | 64% | 1012.1 hPa | 0 mm | - | 160 W/m² | - |
| 1777933641 | 26.67° C | 64% | 1012.1 hPa | 0 mm | - | 190 W/m² | - |
| 1777933338 | 26.67° C | 63% | 1012.1 hPa | 0 mm | - | 178 W/m² | - |
| 1777933035 | 27.22° C | 62% | 1012.4 hPa | 0 mm | - | 144 W/m² | - |
| 1777932732 | 27.22° C | 60% | 1012.4 hPa | 0 mm | - | 173 W/m² | - |
| 1777932428 | 27.22° C | 59% | 1012.4 hPa | 0 mm | - | 173 W/m² | - |
| 1777932126 | 27.78° C | 59% | 1012.4 hPa | 0 mm | - | 166 W/m² | - |
| 1777931822 | 27.78° C | 59% | 1012.4 hPa | 0 mm | - | 166 W/m² | - |
| 1777931520 | 27.78° C | 58% | 1012.4 hPa | 0 mm | - | 188 W/m² | - |
| 1777931215 | 28.33° C | 56% | 1012.4 hPa | 0 mm | - | 191 W/m² | - |
| 1777930912 | 28.33° C | 56% | 1012.7 hPa | 0 mm | - | 208 W/m² | - |
| 1777930609 | 28.33° C | 56% | 1012.4 hPa | 0 mm | - | 265 W/m² | - |
| 1777930305 | 28.33° C | 56% | 1012.4 hPa | 0 mm | - | 267 W/m² | - |
| 1777930002 | 28.33° C | 56% | 1012.7 hPa | 0 mm | - | 176 W/m² | - |
* Rain latest hour (hover to see other rain measurements)
** Current wind speed in m/s (hover to see current wind gust speed)